• Processing (Info)

  • MPEC 2010-V78 : 2010 VX39

    The following Minor Planet Electronic Circular may be linked-to from your own Web pages, but must not otherwise be redistributed electronically.

    A form allowing access to any MPEC is at the bottom of this page.


    Read MPEC 2010-V77 Read MPEC 2010-V79


    M.P.E.C. 2010-V78                                Issued 2010 Nov. 7, 18:50 UT
    
         The Minor Planet Electronic Circulars contain information on unusual
             minor planets and routine data on comets.  They are published
       on behalf of Commission 20 of the International Astronomical Union by the
              Minor Planet Center, Smithsonian Astrophysical Observatory,
                              Cambridge, MA 02138, U.S.A.
    
                 Prepared using the Tamkin Foundation Computer Network
    
                                  MPC@CFA.HARVARD.EDU
           URL https://www.minorplanetcenter.org/iau/mpc.html  ISSN 1523-6714
    
                                       2010 VX39
    
    Observations:
         K10V39X* C2010 11 05.43330 09 06 56.61 +11 46 32.3          20.1   EV078704
         K10V39X  C2010 11 05.44584 09 07 00.78 +11 46 37.0          19.5   EV078704
         K10V39X  C2010 11 05.45840 09 07 04.89 +11 46 40.8          19.6   EV078704
         K10V39X  C2010 11 05.47096 09 07 09.04 +11 46 45.0          19.5   EV078704
         K10V39X KC2010 11 06.43913 09 12 32.30 +11 52 08.2          19.3 R EV078H36
         K10V39X KC2010 11 06.44360 09 12 33.80 +11 52 09.5          19.1 R EV078H36
         K10V39X KC2010 11 06.44808 09 12 35.24 +11 52 10.6          19.2 R EV078H36
         K10V39X  C2010 11 06.48169 09 12 46.47 +11 52 23.6          19.5 R EV078H01
         K10V39X  C2010 11 06.48801 09 12 48.52 +11 52 25.8          19.2 R EV078H01
         K10V39X  C2010 11 06.49581 09 12 51.08 +11 52 28.4          19.7 R EV078H01
         K10V39X  C2010 11 06.50242 09 12 53.25 +11 52 30.6          19.2 R EV078H01
         K10V39X KC2010 11 07.36674409 17 41.67 +11 57 04.2          20.3 V EV078H21
         K10V39X KC2010 11 07.37171009 17 43.31 +11 57 06.0          20.3 V EV078H21
         K10V39X KC2010 11 07.37638509 17 44.84 +11 57 07.3          20.1 V EV078H21
         K10V39X KC2010 11 07.38088509 17 46.31 +11 57 09.1          20.4 V EV078H21
         K10V39X  C2010 11 07.42360 09 18 00.65 +11 57 23.8          19.9 R EV078H01
         K10V39X  C2010 11 07.43101 09 18 03.07 +11 57 26.3          20.2 R EV078H01
         K10V39X  C2010 11 07.47864 09 18 18.67 +11 57 41.7          19.9 R EV078H01
         K10V39X  C2010 11 07.48781 09 18 21.67 +11 57 44.6          20.1 R EV078H01
    
    Observer details:
    704 Lincoln Laboratory ETS, New Mexico.  Observers M. Blythe, G. Spitz,
        R. Brungard, J. Paige, P. Festler.  1.0-m f/2.15 reflector + CCD.
    H01 Magdalena Ridge Observatory, Socorro.  Observers W. H. Ryan, E. V. Ryan.
        Measurer W. H. Ryan.  2.4-m f/8.9 reflector + CCD.
    H21 Astronomical Research Observatory, Westfield.  Observer R. Holmes.  0.81-m
        f/4.5 astrograph + CCD.
    H36 Sandlot Observatory, Scranton.  Observer G. Hug.  0.56-m reflector + CCD.
    
    Orbital elements:
    2010 VX39                                                Earth MOID = 0.0646 AU
    Epoch 2010 July 23.0 TT = JDT 2455400.5                 MPC
    M 309.43673              (2000.0)            P               Q
    n   0.39468888     Peri.   14.89645     -0.03732638     -0.98035933
    a   1.8406284      Node    77.52862     +0.89536724     -0.11886672
    e   0.4347315      Incl.   11.43962     +0.44376148     +0.15737307
    P   2.50           H   19.1           G   0.15           U   9
    Residuals in seconds of arc
    101105 704  1.0-  0.4+    101106 H01  0.6-  0.2+    101107 H21  0.7-  0.3+
    101105 704  0.4-  0.6+    101106 H01  0.8-  0.3+    101107 H01  0.5-  0.2+
    101105 704  0.7-  0.1-    101106 H01  0.7-  0.3+    101107 H01  0.6-  0.3+
    101105 704  0.3-  0.3-    101106 H01  0.6-  0.3+    101107 H01  0.5-  0.2+
    101106 H36  0.6-  0.3+    101107 H21  0.7-  0.0     101107 H01  0.4-  0.2+
    101106 H36  0.1-  0.1+    101107 H21  0.6-  0.2+
    101106 H36  0.5-  0.3-    101107 H21  0.6-  0.0
    
    Ephemeris:
    2010 VX39                a,e,i = 1.84, 0.43, 11                  q = 1.0404
    Date    TT    R. A. (2000) Decl.     Delta      r     Elong.  Phase     V
    2010 10 31    08 36.61   +11 12.1    0.462    1.086    88.7    66.1    19.9
    2010 11 10    09 32.23   +12 10.1    0.454    1.060    85.9    68.8    19.9
    2010 11 20    10 25.71   +12 41.5    0.459    1.044    83.9    70.2    20.0
    2010 11 30    11 14.86   +12 47.8    0.474    1.041    83.0    70.2    20.0
    2010 12 10    11 58.44   +12 37.4    0.495    1.049    83.2    68.8    20.1
    2010 12 20    12 36.13   +12 20.8    0.517    1.068    84.7    66.5    20.2
    2010 12 30    13 08.13   +12 07.6    0.537    1.098    87.3    63.5    20.2
    2011 01 09    13 34.65   +12 06.3    0.553    1.136    91.0    59.9    20.2
    2011 01 19    13 55.73   +12 22.5    0.564    1.182    95.7    55.9    20.2
    2011 01 29    14 11.29   +12 59.3    0.570    1.233   101.6    51.5    20.2
    2011 02 08    14 20.94   +13 57.9    0.572    1.289   108.7    46.5    20.2
    2011 02 18    14 24.21   +15 14.3    0.572    1.347   116.9    40.9    20.1
    2011 02 28    14 20.80   +16 40.0    0.574    1.407   126.1    34.7    20.1
    2011 03 10    14 10.82   +18 00.3    0.582    1.468   135.9    28.1    20.0
    2011 03 20    13 55.55   +18 55.3    0.602    1.529   145.3    21.7    20.0
    2011 03 30    13 37.41   +19 08.5    0.637    1.590   152.3    17.0    20.0
    2011 04 09    13 19.45   +18 32.7    0.691    1.650   154.0    15.4    20.2
    2011 04 19    13 04.34   +17 12.8    0.764    1.709   150.1    17.0    20.6
    2011 04 29    12 53.49   +15 22.1    0.856    1.767   143.0    20.1    21.0
    2011 05 09    12 47.19   +13 13.0    0.964    1.824   135.0    23.0    21.4
    2011 05 19    12 45.08   +10 55.4    1.087    1.878   127.0    25.5    21.8
    
    Gareth V. Williams           (C) Copyright 2010 MPC           M.P.E.C. 2010-V78
    

    Read MPEC 2010-V77 Read MPEC 2010-V79


    MPEC number:

    Enter an MPEC number in one of the following forms:

    • 1997-B01 (the full form)
    • J97B01 (the packed version of the full form)
    • B01 (the abbreviated form)